Regional Weather Roundup
Issued by NWS

Home | Current Version | Previous Version | Text Only | Print | Product List | Glossary Off
Versions: 1 2 3 4 5 6 7 8 9 10 11 12 13 14 15 16 17 18 19 20 21 22 23 24 25 26 27 28 29 30 31 32 33 34 35 36 37 38 39 40 41 42 43 44 45 46 47 48 49 50

000
ASUS44 KMEG 060010
RWRTN
TENNESSEE HOURLY STATE WEATHER ROUNDUP
NATIONAL WEATHER SERVICE MEMPHIS TN
600 PM CST FRI FEB 05 2016

TNZ002-004-019-021-049-052-054-088>092-060100-
WEST TENNESSEE

CITY           SKY/WX    TMP DP  RH WIND       PRES   REMARKS
MEMPHIS INTL   MOCLDY    49  19  30 CALM      30.40S
NWS MEMPHIS      N/A     44 N/A N/A MISG        N/A
JACKSON          N/A     42  23  46 CALM      30.40S
DYERSBURG      CLOUDY    45  23  42 S3        30.41S
UNION CITY     CLEAR     39  27  60 S5        30.37F
PARIS          CLEAR     37  21  52 CALM      30.39S
LEXINGTON      CLEAR     45  10  24 CALM      30.39R
$$

TNZ008-025-027-028-033-062-065-066-060100-
NORTH MIDDLE TENNESSEE

CITY           SKY/WX    TMP DP  RH WIND       PRES   REMARKS
NASHVILLE      CLOUDY    43  17  35 CALM      30.40R
CLARKSVILLE    CLOUDY    44  18  35 CALM      30.39R
SMYRNA         CLOUDY    40  20  45 SE3       30.41R
COOKEVILLE     CLEAR     32  25  74 CALM      30.38R
CROSSVILLE     CLOUDY    36  12  37 CALM      30.36S
$$

TNZ061-075-076-078-094-096-097-060100-
SOUTH MIDDLE TENNESSEE

CITY           SKY/WX    TMP DP  RH WIND       PRES   REMARKS
FAYETTEVILLE   CLEAR     43  14  31 N3        30.39S
TULLAHOMA      CLEAR     36  19  51 CALM      30.39R
WINCHESTER     CLEAR     36  19  51 CALM      30.40R
MCMINNVILLE    CLEAR     37  19  48 CALM      30.39R
COLUMBIA       CLEAR     39  23  52 CALM      30.38R
SHELBYVILLE    CLEAR     39  23  52 CALM      30.41R
$$

TNZ017-018-042-046-047-060100-
NORTHEAST TENNESSEE

CITY           SKY/WX    TMP DP  RH WIND       PRES   REMARKS
TRI CITIES     PTCLDY    34  13  41 CALM      30.37S
$$

TNZ012-013-036-069-073-074-060100-
CENTRAL EAST TENNESSEE

CITY           SKY/WX    TMP DP  RH WIND       PRES   REMARKS
KNOXVILLE      MOCLDY    39  16  39 E6        30.39S WCI  35
OAK RIDGE      CLEAR     38  18  44 CALM      30.41R
GATLINBURG       N/A     36  14  41 CALM      30.39S
MORRISTOWN     CLEAR     36  16  44 SW3       30.38R
$$

TNZ083-085-099-060100-
SOUTHEAST TENNESSEE

CITY           SKY/WX    TMP DP  RH WIND       PRES   REMARKS
CHATTANOOGA    PTCLDY    42  15  33 E6        30.39S
$$

SKY/WX REPORTED AS FAIR MEANS FEW OR NO CLOUDS BELOW
12 THOUSAND FEET.




USA.gov is the U.S. government's official web portal to all federal, state and local government web resources and services.